Regional Weather Roundup
Issued by NWS

Home | Current Version | Previous Version | Graphics & Text | Print | Product List | Glossary On
Versions: 1 2 3 4 5 6 7 8 9 10 11 12 13 14 15 16 17 18 19 20 21 22 23 24 25 26 27 28 29 30 31 32 33 34 35 36 37 38 39 40 41 42 43 44 45 46 47 48 49 50
000
ASUS44 KMEG 281210
RWRTN
TENNESSEE HOURLY STATE WEATHER ROUNDUP
NATIONAL WEATHER SERVICE MEMPHIS TN
700 AM CDT SUN AUG 28 2016

TNZ002-004-019-021-049-052-054-088>092-281300-
WEST TENNESSEE

CITY           SKY/WX    TMP DP  RH WIND       PRES   REMARKS
MEMPHIS INTL   PTCLDY    77  72  84 E6        30.08R
NWS MEMPHIS      N/A     73 N/A N/A MISG        N/A
JACKSON        CLEAR     71  71 100 CALM      30.11R
DYERSBURG      CLEAR     72  70  94 MISG      30.11R
UNION CITY     CLEAR     72  70  94 CALM      30.11R
PARIS          CLEAR     70  68  94 NE3       30.13R
$$

TNZ008-025-027-028-033-062-065-066-281300-
NORTH MIDDLE TENNESSEE

CITY           SKY/WX    TMP DP  RH WIND       PRES   REMARKS
NASHVILLE      PTCLDY    72  70  93 CALM      30.15R
CLARKSVILLE    CLEAR     71  69  93 CALM      30.14R
SMYRNA         CLEAR     73  72  94 MISG      30.14
COOKEVILLE     CLEAR     70  70 100 CALM      30.17R
CROSSVILLE     PTCLDY    69  67  93 E3        30.24R
$$

TNZ061-075-076-078-094-096-097-281300-
SOUTH MIDDLE TENNESSEE

CITY           SKY/WX    TMP DP  RH WIND       PRES   REMARKS
FAYETTEVILLE   PTCLDY    73  70  88 E5        30.15S
TULLAHOMA      CLEAR     70  66  88 CALM      30.18R
WINCHESTER     CLEAR     73  70  88 S5        30.17R
MCMINNVILLE    CLEAR     72  72 100 CALM      30.18R
COLUMBIA       CLEAR    N/A N/A N/A CALM      30.13R
SHELBYVILLE    CLEAR     72  72 100 CALM      30.16S
$$

TNZ017-018-042-046-047-281300-
NORTHEAST TENNESSEE

CITY           SKY/WX    TMP DP  RH WIND       PRES   REMARKS
TRI CITIES     PTSUNNY   73  70  90 CALM      30.23R
ELIZABETHTON   MOSUNNY   75  72  88 CALM      30.24R
$$

TNZ012-013-036-069-073-074-281300-
CENTRAL EAST TENNESSEE

CITY           SKY/WX    TMP DP  RH WIND       PRES   REMARKS
KNOXVILLE      MOSUNNY   71  69  93 SE3       30.19R
OAK RIDGE      CLEAR     72  69  90 CALM      30.21
GATLINBURG     SUNNY     70  68  94 CALM      30.20R
MORRISTOWN     SUNNY     72  68  88 CALM      30.21R
$$

TNZ083-085-099-281300-
SOUTHEAST TENNESSEE

CITY           SKY/WX    TMP DP  RH WIND       PRES   REMARKS
CHATTANOOGA    PTCLDY    73  70  90 CALM      30.17R
$$

SKY/WX REPORTED AS FAIR MEANS FEW OR NO CLOUDS BELOW
12 THOUSAND FEET.




USA.gov is the U.S. government's official web portal to all federal, state and local government web resources and services.